Погода в Париже

Россия / Челябинская область     53°17′47″N   60°06′05″E
темп.,
°C
ветер,
м/с
пор.,
м/с
влажн.,
%
обл.,
%
осадки,
мм/ч
давл.,
гПа
погр.,
м
8 марта, пн
пн823:00−16зсз5988100 0.8 1012196
02:00−19з45910 0.0 101383
05:00−19зюз45930 0.0 101585
08:00−16ююз6109267 0.0 1014184
11:00−12ююз9169383 0.3 1012535
14:00−8юз121887100 0.1 10101030
17:00−6юз111887100 0.3 10091111
20:00−7юз101886100 0.0 1010731
9 марта, вт
вт923:00−7юз9178899 0.0 1011606
02:00−6юз91789100 0.0 1010643
05:00−7юз101889100 0.1 1009673
08:00−8юз101890100 0.1 1008675
11:00−6юз101688100 0.1 1010734
14:00−3з7116992 0.2 10121289
17:00−4юз367996 0.2 1012422
20:00−7ю4695100 0.0 1013112
10 марта, ср
ср1023:00−9ю3495100 0.0 101288
02:00−7ююв4796100 0.3 1009210
05:00−6ююв4896100 1.1 1006282
08:00−6ю51095100 0.6 1002360
11:00−4ююз71193100 1.2 1000663
14:00−6зюз9128299 0.3 1000728
17:00−8з8137980 0.3 10011165
20:00−12зюз9168433 0.0 1003568
11 марта, чт
чт1123:00−16з8168517 0.0 1005585
02:00−20з813860 0.0 1006329
05:00−21з714911 0.0 1007475
08:00−21з61394100 0.1 1008495
11:00−18зсз6989100 0.1 1010514
14:00−16зсз6891100 0.1 1011503
17:00−15зсз61086100 0.1 1013667
20:00−18зсз6138499 0.0 1016284
12 марта, пт
пт1223:00−21зсз6128567 0.0 1019231
02:00−22з5118683 0.0 1020219
05:00−20зюз6118986 0.0 1020264
08:00−20зсз5138772 0.0 1021272
11:00−15сз6118136 0.0 1023532
14:00−11зсз46800 0.0 1024700
17:00−10зсз478021 0.0 1024788
20:00−15з478618 0.0 102796